TimeEST,TemperatureF,Dew PointF,Humidity,Sea Level PressureIn,VisibilityMPH,Wind Direction,Wind SpeedMPH,Gust SpeedMPH,PrecipitationIn,Events,Conditions,WindDirDegrees,DateUTC
12:53 AM,28.0,17.1,63,30.44,10.0,East,4.6,-,N/A,,Clear,80,2013-01-27 05:53:00
1:53 AM,27.0,17.1,66,30.41,10.0,ENE,5.8,-,N/A,,Clear,70,2013-01-27 06:53:00
2:53 AM,27.0,17.1,66,30.41,10.0,East,4.6,-,N/A,,Clear,100,2013-01-27 07:53:00
3:53 AM,26.1,17.1,69,30.42,10.0,ENE,4.6,-,N/A,,Clear,70,2013-01-27 08:53:00
4:53 AM,26.1,18.0,71,30.40,9.0,East,4.6,-,N/A,,Clear,100,2013-01-27 09:53:00
5:53 AM,25.0,18.0,75,30.41,8.0,East,4.6,-,N/A,,Clear,90,2013-01-27 10:53:00
6:53 AM,26.1,19.0,75,30.41,8.0,East,3.5,-,N/A,,Clear,80,2013-01-27 11:53:00
7:53 AM,27.0,19.9,75,30.42,6.0,East,4.6,-,N/A,,Haze,100,2013-01-27 12:53:00
8:53 AM,28.0,21.0,75,30.41,6.0,East,6.9,-,N/A,,Haze,80,2013-01-27 13:53:00
9:53 AM,30.0,21.9,72,30.42,7.0,ESE,5.8,-,N/A,,Clear,120,2013-01-27 14:53:00
10:53 AM,33.1,23.0,66,30.43,8.0,ESE,4.6,-,N/A,,Partly Cloudy,120,2013-01-27 15:53:00
11:53 AM,35.1,24.1,64,30.41,9.0,SE,5.8,-,N/A,,Partly Cloudy,130,2013-01-27 16:53:00
12:53 PM,39.0,25.0,57,30.38,10.0,SSE,3.5,-,N/A,,Overcast,150,2013-01-27 17:53:00
1:53 PM,41.0,25.0,53,30.32,10.0,ESE,6.9,-,N/A,,Mostly Cloudy,110,2013-01-27 18:53:00
2:53 PM,43.0,25.0,49,30.32,10.0,SE,5.8,-,N/A,,Overcast,130,2013-01-27 19:53:00
3:53 PM,43.0,26.1,51,30.29,10.0,SSE,6.9,-,0.00,,Overcast,150,2013-01-27 20:53:00
4:53 PM,43.0,30.0,60,30.28,10.0,SE,3.5,-,0.00,Rain,Light Rain,140,2013-01-27 21:53:00
5:53 PM,43.0,30.9,62,30.27,9.0,SSE,5.8,-,0.00,Rain,Light Rain,150,2013-01-27 22:53:00
6:50 PM,42.8,33.8,70,30.24,8.0,SSE,6.9,-,0.00,Rain,Light Rain,150,2013-01-27 23:50:00
6:53 PM,42.1,34.0,73,30.25,8.0,SSE,5.8,-,0.00,Rain,Light Rain,160,2013-01-27 23:53:00
7:53 PM,41.0,37.0,86,30.25,5.0,SSE,5.8,-,0.06,Rain,Light Rain,150,2013-01-28 00:53:00
8:53 PM,41.0,37.9,89,30.24,4.0,SSE,4.6,-,0.04,Rain,Light Rain,150,2013-01-28 01:53:00
9:53 PM,41.0,39.0,93,30.21,6.0,SSE,4.6,-,0.02,,Overcast,160,2013-01-28 02:53:00
10:53 PM,42.1,39.9,92,30.20,7.0,South,4.6,-,N/A,,Overcast,170,2013-01-28 03:53:00
11:19 PM,42.8,39.2,87,30.18,8.0,South,4.6,-,N/A,,Mostly Cloudy,180,2013-01-28 04:19:00
11:53 PM,44.1,39.9,85,30.17,9.0,SSW,4.6,-,0.00,Rain,Light Rain,200,2013-01-28 04:53:00